Location: Coopersdale
(40.3556°N, 78.9372°W)
Time: 15:25:35
(UTC+00:00)

Transit 2A - All Passes

Search period start: 23 January 2021 00:00
Search period end: 02 February 2021 00:00
Orbit: 598 x 960 km, 66.7° (Epoch: 22 January)

Date Brightness Start Highest point End Pass type
(mag) Time Alt. Az. Time Alt. Az. Time Alt. Az.
23 Jan - 08:01:09 10° SSE 08:05:57 25° ESE 08:10:26 10° NE visible
23 Jan - 09:43:12 10° SW 09:48:55 49° WNW 09:54:09 10° NNE visible
23 Jan - 16:48:58 10° N 16:51:50 16° NE 16:54:35 10° E daylight
23 Jan - 18:31:00 10° NW 18:35:26 60° WSW 18:39:41 10° SSE daylight
24 Jan - 07:28:13 10° SE 07:31:57 17° ESE 07:35:30 10° ENE night (unlit)
24 Jan - 09:08:46 10° SW 09:14:42 71° WNW 09:20:06 10° NNE visible
24 Jan - 10:56:07 10° WNW 10:58:43 13° NW 11:01:14 10° NNW visible
24 Jan - 16:15:49 10° NNE 16:17:21 11° NE 16:18:51 10° ENE daylight
24 Jan - 17:56:47 10° NNW 18:01:19 85° ENE 18:05:38 10° SSE daylight
25 Jan - 06:56:21 10° ESE 06:57:59 11° ESE 06:59:36 10° E night (unlit)
25 Jan - 08:34:33 10° SSW 08:40:32 82° ESE 08:45:58 10° NNE visible
25 Jan - 10:20:28 10° W 10:24:15 18° NW 10:27:51 10° N visible
25 Jan - 17:22:41 10° NNW 17:27:07 54° ENE 17:31:21 10° SE daylight
25 Jan - 19:07:32 10° WNW 19:09:40 13° WSW 19:11:46 10° SW daylight
26 Jan - 08:00:34 10° SSW 08:06:23 57° ESE 08:11:43 10° NE visible
26 Jan - 09:45:15 10° WSW 09:49:51 24° NW 09:54:08 10° N visible
26 Jan - 16:48:41 10° NNW 16:52:52 35° NE 16:56:50 10° ESE daylight
26 Jan - 18:32:22 10° WNW 18:35:43 21° WSW 18:39:00 10° SSW daylight
27 Jan - 07:26:49 10° S 07:32:17 39° ESE 07:37:21 10° NE night (unlit)
27 Jan - 09:10:20 10° WSW 09:15:31 33° NW 09:20:19 10° NNE visible
27 Jan - 16:14:50 10° N 16:18:32 24° NE 16:22:05 10° ESE daylight
27 Jan - 17:57:43 10° NW 18:01:43 33° WSW 18:05:36 10° S daylight
28 Jan - 06:53:21 10° SSE 06:58:14 27° ESE 07:02:48 10° NE night (unlit)
28 Jan - 08:35:39 10° SW 08:41:15 46° NW 08:46:22 10° NNE visible
28 Jan - 15:41:09 10° N 15:44:08 17° NE 15:47:01 10° E daylight
28 Jan - 17:23:18 10° NW 17:27:40 54° WSW 17:31:52 10° SSE daylight
29 Jan - 06:20:18 10° SSE 06:24:13 19° ESE 06:27:57 10° ENE night (unlit)
29 Jan - 08:01:10 10° SW 08:07:01 65° WNW 08:12:20 10° NNE night (unlit)
29 Jan - 09:48:56 10° WNW 09:51:06 12° NW 09:53:10 10° NNW visible
29 Jan - 15:07:52 10° NNE 15:09:41 12° NE 15:11:26 10° ENE daylight
29 Jan - 16:49:04 10° NNW 16:53:33 88° WSW 16:57:52 10° SSE daylight
30 Jan - 05:48:06 10° SE 05:50:14 12° ESE 05:52:20 10° E night (unlit)
30 Jan - 07:26:55 10° SSW 07:32:50 88° ESE 07:38:12 10° NNE night (unlit)
30 Jan - 09:13:07 10° W 09:16:36 17° NW 09:19:55 10° N visible
30 Jan - 16:14:56 10° NNW 16:19:23 59° ENE 16:23:37 10° SE daylight
30 Jan - 18:00:11 10° W 18:01:52 12° WSW 18:03:32 10° SW daylight
31 Jan - 06:52:52 10° SSW 06:58:41 61° ESE 07:03:59 10° NE night (unlit)
31 Jan - 08:37:49 10° W 08:42:12 22° NW 08:46:17 10° N visible
31 Jan - 15:40:56 10° NNW 15:45:08 38° NE 15:49:10 10° ESE daylight
31 Jan - 17:24:47 10° WNW 17:27:56 19° WSW 17:31:01 10° SSW daylight
01 Feb - 06:19:05 10° S 06:24:35 42° ESE 06:29:38 10° NE night (unlit)
01 Feb - 08:02:50 10° WSW 08:07:51 30° NW 08:12:29 10° N night (unlit)
01 Feb - 15:07:03 10° N 15:10:49 26° NE 15:14:27 10° ESE daylight
01 Feb - 16:50:04 10° NW 16:53:56 30° WSW 16:57:43 10° S daylight
